カタログに戻る

STARLINK-33600

運用中通信VLEO
NORAD 62772·PAYLOAD·🇺🇸 United States

打ち上げ Jan 21, 2025 から Vandenberg Space Force Base

Loading…

次のパス (今後24時間)

TLE

最新Source: CelesTrak SupGP

元期: Sep 15, 2026, 02:03 UTC

1 62772C 25015Q   26258.08590278 -.00040693  00000+0 -13086-2 0  2580
2 62772  53.1570 161.6316 0001306  78.3366 296.0674 15.31720461    19

AllMySatでSTARLINK-33600をリアルタイム追跡

Download on the App Store